| time (UTC) | temp F | wind direction | speed MPH | gust MPH | rain 1hr in | rain 24hr in | rain mn in | humidity % | barometer mb |
| 20260509201002 | 88 | 244 | 3.0 | 11.0 | 0.00 | 0.00 | 0.00 | 69 | 1011.1 |
| 20260509200502 | 88 | 247 | 3.0 | 11.0 | 0.00 | 0.00 | 0.00 | 69 | 1011.2 |
| 20260509200023 | 88 | 232 | 2.0 | 11.0 | 0.00 | 0.00 | 0.00 | 68 | 1011.2 |
| 20260509195502 | 88 | 197 | 3.0 | 7.0 | 0.00 | 0.00 | 0.00 | 69 | 1011.2 |
| 20260509195002 | 88 | 198 | 2.0 | 9.0 | 0.00 | 0.00 | 0.00 | 68 | 1011.3 |
| 20260509194502 | 89 | 237 | 3.0 | 9.0 | 0.00 | 0.00 | 0.00 | 67 | 1011.3 |
| 20260509194002 | 89 | 248 | 3.0 | 9.0 | 0.00 | 0.00 | 0.00 | 67 | 1011.4 |
| 20260509193523 | 89 | 231 | 2.0 | 11.0 | 0.00 | 0.00 | 0.00 | 65 | 1011.4 |
| 20260509193002 | 90 | 230 | 2.0 | 11.0 | 0.00 | 0.00 | 0.00 | 66 | 1011.6 |
| 20260509192523 | 90 | 244 | 2.0 | 9.0 | 0.00 | 0.00 | 0.00 | 66 | 1011.6 |
| 20260509192002 | 88 | 213 | 3.0 | 9.0 | 0.00 | 0.00 | 0.00 | 67 | 1011.6 |
| 20260509191503 | 89 | 194 | 3.0 | 7.0 | 0.00 | 0.00 | 0.00 | 66 | 1011.7 |
| 20260509191003 | 89 | 196 | 3.0 | 10.0 | 0.00 | 0.00 | 0.00 | 66 | 1011.8 |
| 20260509190502 | 90 | 225 | 3.0 | 10.0 | 0.00 | 0.00 | 0.00 | 66 | 1011.9 |
| 20260509190002 | 88 | 220 | 3.0 | 12.0 | 0.00 | 0.00 | 0.00 | 67 | 1012.0 |
| 20260509185502 | 90 | 230 | 3.0 | 12.0 | 0.00 | 0.00 | 0.00 | 65 | 1012.0 |
| 20260509185023 | 89 | 252 | 3.0 | 8.0 | 0.00 | 0.00 | 0.00 | 67 | 1012.1 |
| 20260509184502 | 89 | 253 | 4.0 | 10.0 | 0.00 | 0.00 | 0.00 | 66 | 1012.1 |
| 20260509184002 | 89 | 220 | 3.0 | 9.0 | 0.00 | 0.00 | 0.00 | 66 | 1012.2 |
| 20260509183502 | 89 | 191 | 3.0 | 13.0 | 0.00 | 0.00 | 0.00 | 65 | 1012.2 |
| 20260509183002 | 89 | 196 | 3.0 | 13.0 | 0.00 | 0.00 | 0.00 | 64 | 1012.2 |
| 20260509182502 | 90 | 193 | 3.0 | 12.0 | 0.00 | 0.00 | 0.00 | 65 | 1012.2 |
| 20260509182002 | 89 | 197 | 4.0 | 12.0 | 0.00 | 0.00 | 0.00 | 67 | 1012.2 |
| 20260509181523 | 88 | 210 | 4.0 | 12.0 | 0.00 | 0.00 | 0.00 | 67 | 1012.3 |
| 20260509181002 | 88 | 203 | 4.0 | 13.0 | 0.00 | 0.00 | 0.00 | 66 | 1012.3 |
| 20260509180523 | 88 | 200 | 4.0 | 13.0 | 0.00 | 0.00 | 0.00 | 65 | 1012.3 |
| 20260509180002 | 89 | 192 | 4.0 | 15.0 | 0.00 | 0.00 | 0.00 | 66 | 1012.2 |
| 20260509175502 | 88 | 200 | 4.0 | 15.0 | 0.00 | 0.00 | 0.00 | 67 | 1012.2 |
| 20260509175002 | 89 | 217 | 4.0 | 12.0 | 0.00 | 0.00 | 0.00 | 65 | 1012.3 |
| 20260509174502 | 88 | 210 | 3.0 | 9.0 | 0.00 | 0.00 | 0.00 | 67 | 1012.3 |
| 20260509174002 | 88 | 217 | 3.0 | 12.0 | 0.00 | 0.00 | 0.00 | 66 | 1012.2 |
| 20260509173502 | 88 | 209 | 4.0 | 12.0 | 0.00 | 0.00 | 0.00 | 66 | 1012.2 |
| 20260509173003 | 89 | 197 | 5.0 | 14.0 | 0.00 | 0.00 | 0.00 | 64 | 1012.3 |
| 20260509172502 | 88 | 189 | 5.0 | 14.0 | 0.00 | 0.00 | 0.00 | 65 | 1012.3 |
| 20260509172002 | 89 | 192 | 4.0 | 12.0 | 0.00 | 0.00 | 0.00 | 63 | 1012.3 |
| 20260509171502 | 89 | 210 | 3.0 | 16.0 | 0.00 | 0.00 | 0.00 | 63 | 1012.3 |
| 20260509171002 | 89 | 198 | 4.0 | 16.0 | 0.00 | 0.00 | 0.00 | 64 | 1012.3 |
| 20260509170502 | 88 | 191 | 5.0 | 15.0 | 0.00 | 0.00 | 0.00 | 62 | 1012.5 |
| 20260509170002 | 89 | 189 | 6.0 | 15.0 | 0.00 | 0.00 | 0.00 | 63 | 1012.5 |
| 20260509165502 | 89 | 192 | 4.0 | 15.0 | 0.00 | 0.00 | 0.00 | 62 | 1012.6 |
| 20260509165002 | 89 | 195 | 4.0 | 14.0 | 0.00 | 0.00 | 0.00 | 62 | 1012.6 |
| 20260509164502 | 89 | 194 | 3.0 | 11.0 | 0.00 | 0.00 | 0.00 | 62 | 1012.7 |
| 20260509164002 | 90 | 219 | 3.0 | 11.0 | 0.00 | 0.00 | 0.00 | 61 | 1012.7 |
| 20260509163502 | 90 | 242 | 3.0 | 11.0 | 0.00 | 0.00 | 0.00 | 63 | 1012.7 |
| 20260509163023 | 89 | 249 | 2.0 | 6.0 | 0.00 | 0.00 | 0.00 | 64 | 1012.7 |
| 20260509162503 | 89 | 228 | 2.0 | 6.0 | 0.00 | 0.00 | 0.00 | 64 | 1012.7 |
| 20260509162002 | 89 | 212 | 2.0 | 8.0 | 0.00 | 0.00 | 0.00 | 67 | 1012.8 |
| 20260509161523 | 88 | 245 | 3.0 | 9.0 | 0.00 | 0.00 | 0.00 | 70 | 1012.9 |
| 20260509161003 | 87 | 259 | 3.0 | 9.0 | 0.00 | 0.00 | 0.00 | 71 | 1013.0 |
| 20260509160502 | 88 | 251 | 2.0 | 6.0 | 0.00 | 0.00 | 0.00 | 70 | 1013.0 |
| 20260509160002 | 88 | 255 | 2.0 | 6.0 | 0.00 | 0.00 | 0.00 | 69 | 1013.1 |
| 20260509155503 | 88 | 263 | 2.0 | 7.0 | 0.00 | 0.00 | 0.00 | 69 | 1013.0 |
| 20260509155002 | 87 | 261 | 2.0 | 7.0 | 0.00 | 0.00 | 0.00 | 69 | 1013.0 |
| 20260509154502 | 88 | 236 | 1.0 | 4.0 | 0.00 | 0.00 | 0.00 | 66 | 1013.1 |
| 20260509154002 | 89 | 230 | 1.0 | 3.0 | 0.00 | 0.00 | 0.00 | 67 | 1012.9 |
| 20260509153502 | 88 | 264 | 2.0 | 5.0 | 0.00 | 0.00 | 0.00 | 67 | 1012.9 |
| 20260509153002 | 86 | 270 | 2.0 | 5.0 | 0.00 | 0.00 | 0.00 | 70 | 1013.0 |
| 20260509152503 | 85 | 258 | 1.0 | 4.0 | 0.00 | 0.00 | 0.00 | 70 | 1013.1 |
| 20260509152002 | 85 | 244 | 1.0 | 4.0 | 0.00 | 0.00 | 0.00 | 69 | 1013.1 |
| 20260509151502 | 87 | 236 | 1.0 | 4.0 | 0.00 | 0.00 | 0.00 | 66 | 1013.2 |
| 20260509151002 | 87 | 261 | 1.0 | 6.0 | 0.00 | 0.00 | 0.00 | 69 | 1013.2 |
| 20260509150502 | 86 | 265 | 1.0 | 6.0 | 0.00 | 0.00 | 0.00 | 68 | 1013.2 |
| 20260509150002 | 86 | 271 | 2.0 | 5.0 | 0.00 | 0.00 | 0.00 | 68 | 1013.2 |
| 20260509145502 | 86 | 274 | 2.0 | 6.0 | 0.00 | 0.00 | 0.00 | 68 | 1013.2 |
| 20260509145003 | 87 | 251 | 2.0 | 6.0 | 0.00 | 0.00 | 0.00 | 65 | 1013.1 |
| 20260509144524 | 88 | 160 | 2.0 | 7.0 | 0.00 | 0.00 | 0.00 | 65 | 1013.0 |
| 20260509144003 | 87 | 159 | 2.0 | 7.0 | 0.00 | 0.00 | 0.00 | 62 | 1013.0 |
| 20260509143502 | 87 | 158 | 2.0 | 6.0 | 0.00 | 0.00 | 0.00 | 62 | 1012.9 |
| 20260509143002 | 88 | 147 | 3.0 | 6.0 | 0.00 | 0.00 | 0.00 | 62 | 1012.9 |
| 20260509142503 | 86 | 151 | 2.0 | 6.0 | 0.00 | 0.00 | 0.00 | 63 | 1013.0 |
| 20260509142023 | 87 | 171 | 2.0 | 5.0 | 0.00 | 0.00 | 0.00 | 65 | 1012.9 |
| 20260509141502 | 86 | 160 | 3.0 | 5.0 | 0.00 | 0.00 | 0.00 | 67 | 1012.8 |
| 20260509141023 | 85 | 148 | 3.0 | 5.0 | 0.00 | 0.00 | 0.00 | 67 | 1012.9 |
| 20260509140502 | 86 | 147 | 3.0 | 6.0 | 0.00 | 0.00 | 0.00 | 67 | 1012.8 |
| 20260509140003 | 85 | 144 | 2.0 | 6.0 | 0.00 | 0.00 | 0.00 | 69 | 1012.8 |
| 20260509135503 | 85 | 124 | 2.0 | 5.0 | 0.00 | 0.00 | 0.00 | 68 | 1012.7 |
| 20260509135002 | 83 | 127 | 2.0 | 5.0 | 0.00 | 0.00 | 0.00 | 70 | 1012.7 |
| 20260509134502 | 83 | 118 | 1.0 | 4.0 | 0.00 | 0.00 | 0.00 | 70 | 1012.8 |
| 20260509134002 | 84 | 121 | 2.0 | 5.0 | 0.00 | 0.00 | 0.00 | 72 | 1012.8 |
| 20260509133503 | 83 | 129 | 2.0 | 5.0 | 0.00 | 0.00 | 0.00 | 73 | 1012.8 |
| 20260509133002 | 82 | 112 | 2.0 | 4.0 | 0.00 | 0.00 | 0.00 | 75 | 1012.8 |
| 20260509132502 | 81 | 81 | 2.0 | 4.0 | 0.00 | 0.00 | 0.00 | 78 | 1012.7 |
| 20260509132023 | 80 | 70 | 2.0 | 5.0 | 0.00 | 0.00 | 0.00 | 80 | 1012.7 |
| 20260509131523 | 79 | 69 | 2.0 | 5.0 | 0.00 | 0.00 | 0.00 | 81 | 1012.7 |
| 20260509131002 | 79 | 66 | 2.0 | 4.0 | 0.00 | 0.00 | 0.00 | 83 | 1012.7 |
| 20260509130502 | 78 | 58 | 2.0 | 4.0 | 0.00 | 0.00 | 0.00 | 83 | 1012.7 |
| 20260509130003 | 78 | 65 | 2.0 | 5.0 | 0.00 | 0.00 | 0.00 | 84 | 1012.7 |
| 20260509125502 | 78 | 76 | 2.0 | 5.0 | 0.00 | 0.00 | 0.00 | 84 | 1012.7 |
| 20260509125003 | 78 | 81 | 2.0 | 5.0 | 0.00 | 0.00 | 0.00 | 85 | 1012.6 |
| 20260509124502 | 78 | 71 | 2.0 | 5.0 | 0.00 | 0.00 | 0.00 | 85 | 1012.5 |
| 20260509124023 | 78 | 65 | 3.0 | 5.0 | 0.00 | 0.00 | 0.00 | 86 | 1012.5 |
| 20260509123502 | 78 | 66 | 3.0 | 5.0 | 0.00 | 0.00 | 0.00 | 86 | 1012.5 |
| 20260509123007 | 77 | 70 | 2.0 | 5.0 | 0.00 | 0.00 | 0.00 | 88 | 1012.5 |
| 20260509122502 | 76 | 83 | 1.0 | 5.0 | 0.00 | 0.00 | 0.00 | 88 | 1012.3 |
| 20260509122003 | 76 | 75 | 1.0 | 5.0 | 0.00 | 0.00 | 0.00 | 89 | 1012.2 |
| 20260509121502 | 76 | 72 | 2.0 | 5.0 | 0.00 | 0.00 | 0.00 | 89 | 1012.2 |
| 20260509121002 | 75 | 73 | 2.0 | 5.0 | 0.00 | 0.00 | 0.00 | 89 | 1012.2 |
| 20260509120502 | 75 | 74 | 1.0 | 4.0 | 0.00 | 0.00 | 0.00 | 89 | 1012.2 |
| 20260509120002 | 75 | 80 | 1.0 | 4.0 | 0.00 | 0.00 | 0.00 | 89 | 1012.1 |
| 20260509115502 | 75 | 76 | 0.0 | 3.0 | 0.00 | 0.00 | 0.00 | 89 | 1012.1 |
| 20260509115002 | 74 | 76 | 1.0 | 3.0 | 0.00 | 0.00 | 0.00 | 89 | 1012.1 |
| 20260509114503 | 74 | 76 | 0.0 | 3.0 | 0.00 | 0.00 | 0.00 | 89 | 1012.0 |
| 20260509114002 | 74 | 0 | 0.0 | 0.0 | 0.00 | 0.00 | 0.00 | 89 | 1011.9 |
| 20260509113502 | 74 | 0 | 0.0 | 0.0 | 0.00 | 0.00 | 0.00 | 89 | 1011.9 |
| 20260509113002 | 74 | 0 | 0.0 | 0.0 | 0.00 | 0.00 | 0.00 | 89 | 1011.8 |
| 20260509112524 | 73 | 76 | 0.0 | 1.0 | 0.00 | 0.00 | 0.00 | 89 | 1011.6 |
| 20260509112002 | 73 | 76 | 0.0 | 1.0 | 0.00 | 0.00 | 0.00 | 89 | 1011.6 |
| 20260509111502 | 73 | 0 | 0.0 | 0.0 | 0.00 | 0.00 | 0.00 | 88 | 1011.6 |
| 20260509111023 | 73 | 0 | 0.0 | 0.0 | 0.00 | 0.00 | 0.00 | 89 | 1011.6 |
| 20260509110523 | 73 | 0 | 0.0 | 0.0 | 0.00 | 0.00 | 0.00 | 88 | 1011.6 |
| 20260509110003 | 73 | 76 | 0.0 | 1.0 | 0.00 | 0.00 | 0.00 | 88 | 1011.6 |
| 20260509105502 | 73 | 76 | 0.0 | 2.0 | 0.00 | 0.00 | 0.00 | 88 | 1011.6 |
| 20260509105002 | 73 | 76 | 0.0 | 2.0 | 0.00 | 0.00 | 0.00 | 88 | 1011.6 |
| 20260509104502 | 73 | 76 | 0.0 | 2.0 | 0.00 | 0.00 | 0.00 | 88 | 1011.5 |
| 20260509104002 | 73 | 76 | 0.0 | 2.0 | 0.00 | 0.00 | 0.00 | 88 | 1011.4 |
| 20260509103502 | 73 | 76 | 1.0 | 2.0 | 0.00 | 0.00 | 0.00 | 88 | 1011.4 |
| 20260509103002 | 73 | 76 | 1.0 | 2.0 | 0.00 | 0.00 | 0.00 | 88 | 1011.2 |
| 20260509102502 | 73 | 76 | 0.0 | 2.0 | 0.00 | 0.00 | 0.00 | 88 | 1011.2 |
| 20260509102002 | 73 | 76 | 0.0 | 3.0 | 0.00 | 0.00 | 0.00 | 88 | 1011.3 |
| 20260509101503 | 73 | 76 | 0.0 | 3.0 | 0.00 | 0.00 | 0.00 | 88 | 1011.5 |
| 20260509101023 | 73 | 76 | 0.0 | 1.0 | 0.00 | 0.00 | 0.00 | 88 | 1011.5 |
| 20260509100507 | 74 | 76 | 0.0 | 1.0 | 0.00 | 0.00 | 0.00 | 88 | 1011.5 |
| 20260509100002 | 74 | 76 | 0.0 | 1.0 | 0.00 | 0.00 | 0.00 | 88 | 1011.6 |
| 20260509095502 | 74 | 0 | 0.0 | 0.0 | 0.00 | 0.00 | 0.00 | 88 | 1011.6 |
| 20260509095002 | 74 | 0 | 0.0 | 0.0 | 0.00 | 0.00 | 0.00 | 88 | 1011.5 |
| 20260509094502 | 74 | 0 | 0.0 | 0.0 | 0.00 | 0.00 | 0.00 | 88 | 1011.5 |
| 20260509094003 | 74 | 76 | 0.0 | 1.0 | 0.00 | 0.00 | 0.00 | 88 | 1011.6 |
| 20260509093523 | 74 | 76 | 0.0 | 2.0 | 0.00 | 0.00 | 0.00 | 88 | 1011.5 |
| 20260509093002 | 74 | 76 | 0.0 | 2.0 | 0.00 | 0.00 | 0.00 | 88 | 1011.6 |
| 20260509092502 | 74 | 76 | 0.0 | 2.0 | 0.00 | 0.00 | 0.00 | 88 | 1011.6 |
| 20260509092003 | 74 | 76 | 0.0 | 2.0 | 0.00 | 0.00 | 0.00 | 87 | 1011.6 |
| 20260509091502 | 74 | 76 | 0.0 | 2.0 | 0.00 | 0.00 | 0.00 | 87 | 1011.6 |
| 20260509091023 | 74 | 76 | 0.0 | 2.0 | 0.00 | 0.00 | 0.00 | 87 | 1011.6 |
| 20260509090502 | 74 | 79 | 0.0 | 3.0 | 0.00 | 0.00 | 0.00 | 87 | 1011.7 |
| 20260509090023 | 74 | 82 | 0.0 | 3.0 | 0.00 | 0.00 | 0.00 | 87 | 1011.6 |
| 20260509085502 | 74 | 92 | 0.0 | 2.0 | 0.00 | 0.00 | 0.00 | 87 | 1011.7 |
| 20260509085003 | 74 | 92 | 0.0 | 2.0 | 0.00 | 0.00 | 0.00 | 87 | 1011.7 |
| 20260509084503 | 74 | 92 | 0.0 | 3.0 | 0.00 | 0.00 | 0.00 | 87 | 1011.8 |
| 20260509084002 | 74 | 89 | 0.0 | 3.0 | 0.00 | 0.00 | 0.00 | 87 | 1011.7 |
| 20260509083502 | 74 | 85 | 0.0 | 3.0 | 0.00 | 0.00 | 0.00 | 87 | 1011.6 |
| 20260509083002 | 74 | 98 | 0.0 | 3.0 | 0.00 | 0.00 | 0.00 | 87 | 1011.7 |
| 20260509082524 | 74 | 106 | 0.0 | 3.0 | 0.00 | 0.00 | 0.00 | 87 | 1011.7 |
| 20260509082023 | 74 | 109 | 1.0 | 3.0 | 0.00 | 0.00 | 0.00 | 87 | 1011.8 |
| 20260509081502 | 74 | 109 | 1.0 | 2.0 | 0.00 | 0.00 | 0.00 | 87 | 1011.9 |
| 20260509081002 | 74 | 109 | 1.0 | 2.0 | 0.00 | 0.00 | 0.00 | 87 | 1011.8 |
| 20260509080502 | 74 | 107 | 1.0 | 2.0 | 0.00 | 0.00 | 0.00 | 87 | 1011.8 |
| 20260509080003 | 74 | 101 | 1.0 | 3.0 | 0.00 | 0.00 | 0.00 | 87 | 1011.8 |
| 20260509075523 | 74 | 98 | 1.0 | 3.0 | 0.00 | 0.00 | 0.00 | 86 | 1012.0 |
| 20260509075002 | 74 | 104 | 0.0 | 2.0 | 0.00 | 0.00 | 0.00 | 86 | 1012.1 |
| 20260509074502 | 74 | 104 | 0.0 | 1.0 | 0.00 | 0.00 | 0.00 | 86 | 1012.1 |
| 20260509074002 | 74 | 107 | 0.0 | 2.0 | 0.00 | 0.00 | 0.00 | 86 | 1012.2 |
| 20260509073502 | 74 | 111 | 0.0 | 2.0 | 0.00 | 0.00 | 0.00 | 86 | 1012.2 |
| 20260509073003 | 75 | 122 | 0.0 | 2.0 | 0.00 | 0.00 | 0.00 | 86 | 1012.2 |
| 20260509072502 | 75 | 0 | 0.0 | 0.0 | 0.00 | 0.00 | 0.00 | 86 | 1012.2 |
| 20260509072002 | 75 | 0 | 0.0 | 0.0 | 0.00 | 0.00 | 0.00 | 86 | 1012.2 |
| 20260509071502 | 75 | 0 | 0.0 | 0.0 | 0.00 | 0.00 | 0.00 | 86 | 1012.2 |
| 20260509071002 | 75 | 0 | 0.0 | 0.0 | 0.00 | 0.00 | 0.00 | 86 | 1012.2 |
| 20260509070523 | 75 | 0 | 0.0 | 0.0 | 0.00 | 0.00 | 0.00 | 86 | 1012.2 |
| 20260509070002 | 75 | 80 | 0.0 | 1.0 | 0.00 | 0.00 | 0.00 | 85 | 1012.3 |
| 20260509065502 | 75 | 80 | 0.0 | 1.0 | 0.00 | 0.00 | 0.00 | 85 | 1012.3 |
| 20260509065002 | 75 | 80 | 0.0 | 2.0 | 0.00 | 0.00 | 0.00 | 85 | 1012.4 |
| 20260509064502 | 76 | 80 | 1.0 | 3.0 | 0.00 | 0.00 | 0.00 | 85 | 1012.5 |
| 20260509064002 | 76 | 80 | 1.0 | 3.0 | 0.00 | 0.00 | 0.00 | 85 | 1012.5 |
| 20260509063502 | 76 | 80 | 0.0 | 2.0 | 0.00 | 0.00 | 0.00 | 85 | 1012.5 |
| 20260509063023 | 76 | 80 | 1.0 | 3.0 | 0.00 | 0.00 | 0.00 | 85 | 1012.6 |
| 20260509062502 | 76 | 75 | 1.0 | 4.0 | 0.00 | 0.00 | 0.00 | 85 | 1012.7 |
| 20260509062002 | 76 | 74 | 1.0 | 4.0 | 0.00 | 0.00 | 0.00 | 85 | 1012.7 |
| 20260509061524 | 76 | 76 | 1.0 | 2.0 | 0.00 | 0.00 | 0.00 | 85 | 1012.7 |
| 20260509061002 | 76 | 91 | 1.0 | 6.0 | 0.00 | 0.00 | 0.00 | 85 | 1012.8 |
| 20260509060523 | 76 | 96 | 1.0 | 6.0 | 0.00 | 0.00 | 0.00 | 85 | 1012.9 |
| 20260509060003 | 76 | 72 | 1.0 | 4.0 | 0.00 | 0.00 | 0.00 | 84 | 1013.0 |
| 20260509055503 | 77 | 77 | 1.0 | 3.0 | 0.00 | 0.00 | 0.00 | 84 | 1013.0 |
| 20260509055003 | 77 | 95 | 1.0 | 3.0 | 0.00 | 0.00 | 0.00 | 84 | 1013.0 |
| 20260509054502 | 77 | 95 | 1.0 | 5.0 | 0.00 | 0.00 | 0.00 | 84 | 1013.0 |
| 20260509054002 | 77 | 88 | 1.0 | 5.0 | 0.00 | 0.00 | 0.00 | 84 | 1013.0 |
| 20260509053502 | 77 | 90 | 1.0 | 3.0 | 0.00 | 0.00 | 0.00 | 84 | 1013.0 |
| 20260509053002 | 77 | 84 | 1.0 | 5.0 | 0.00 | 0.00 | 0.00 | 84 | 1013.1 |
| 20260509052524 | 77 | 75 | 2.0 | 7.0 | 0.00 | 0.00 | 0.00 | 83 | 1013.2 |
| 20260509052002 | 78 | 78 | 2.0 | 7.0 | 0.00 | 0.00 | 0.00 | 83 | 1013.2 |
| 20260509051503 | 78 | 75 | 2.0 | 5.0 | 0.00 | 0.00 | 0.00 | 83 | 1013.2 |
| 20260509051002 | 78 | 65 | 1.0 | 5.0 | 0.00 | 0.00 | 0.00 | 83 | 1013.2 |
| 20260509050507 | 78 | 60 | 0.0 | 4.0 | 0.00 | 0.00 | 0.00 | 82 | 1013.2 |
| 20260509050002 | 78 | 0 | 0.0 | 0.0 | 0.00 | 0.00 | 0.00 | 82 | 1013.2 |
| 20260509045503 | 78 | 0 | 0.0 | 0.0 | 0.00 | 0.00 | 0.00 | 82 | 1013.2 |
| 20260509045002 | 78 | 0 | 0.0 | 0.0 | 0.00 | 0.00 | 0.00 | 82 | 1013.2 |
| 20260509044502 | 78 | 0 | 0.0 | 0.0 | 0.00 | 0.00 | 0.00 | 82 | 1013.2 |
| 20260509044002 | 78 | 309 | 0.0 | 5.0 | 0.00 | 0.00 | 0.00 | 82 | 1013.2 |
| 20260509043502 | 79 | 317 | 0.0 | 5.0 | 0.00 | 0.00 | 0.00 | 81 | 1013.2 |
| 20260509043004 | 79 | 331 | 1.0 | 5.0 | 0.00 | 0.00 | 0.00 | 81 | 1013.2 |
| 20260509042502 | 79 | 319 | 1.0 | 5.0 | 0.00 | 0.00 | 0.00 | 81 | 1013.2 |
| 20260509042002 | 79 | 309 | 1.0 | 5.0 | 0.00 | 0.00 | 0.00 | 81 | 1013.2 |
| 20260509041528 | 79 | 316 | 1.0 | 5.0 | 0.00 | 0.00 | 0.00 | 81 | 1013.3 |
| 20260509041002 | 79 | 316 | 2.0 | 5.0 | 0.00 | 0.00 | 0.00 | 81 | 1013.3 |
| 20260509040502 | 79 | 309 | 2.0 | 6.0 | 0.00 | 0.00 | 0.00 | 81 | 1013.4 |
| 20260509040004 | 79 | 310 | 2.0 | 6.0 | 0.00 | 0.00 | 0.00 | 81 | 1013.4 |
| 20260509035502 | 79 | 308 | 3.0 | 7.0 | 0.00 | 0.00 | 0.00 | 81 | 1013.3 |
| 20260509035002 | 79 | 307 | 3.0 | 7.0 | 0.00 | 0.00 | 0.00 | 81 | 1013.3 |
| 20260509034503 | 79 | 306 | 3.0 | 7.0 | 0.00 | 0.00 | 0.00 | 81 | 1013.3 |
| 20260509034003 | 79 | 301 | 3.0 | 7.0 | 0.00 | 0.00 | 0.00 | 81 | 1013.3 |
| 20260509033502 | 79 | 303 | 3.0 | 8.0 | 0.00 | 0.00 | 0.00 | 82 | 1013.4 |
| 20260509033002 | 79 | 306 | 4.0 | 9.0 | 0.00 | 0.00 | 0.00 | 82 | 1013.4 |
| 20260509032502 | 79 | 306 | 3.0 | 9.0 | 0.00 | 0.00 | 0.00 | 82 | 1013.3 |
| 20260509032002 | 80 | 304 | 4.0 | 12.0 | 0.00 | 0.00 | 0.00 | 82 | 1013.4 |
| 20260509031523 | 80 | 310 | 5.0 | 12.0 | 0.00 | 0.00 | 0.00 | 81 | 1013.4 |
| 20260509031023 | 80 | 311 | 4.0 | 9.0 | 0.00 | 0.00 | 0.00 | 81 | 1013.4 |
| 20260509030502 | 80 | 302 | 4.0 | 11.0 | 0.00 | 0.00 | 0.00 | 81 | 1013.4 |
| 20260509030002 | 80 | 297 | 4.0 | 11.0 | 0.00 | 0.00 | 0.00 | 81 | 1013.3 |
| 20260509025502 | 80 | 294 | 5.0 | 11.0 | 0.00 | 0.00 | 0.00 | 80 | 1013.2 |
| 20260509025002 | 80 | 294 | 5.0 | 11.0 | 0.00 | 0.00 | 0.00 | 80 | 1013.2 |
| 20260509024502 | 80 | 292 | 5.0 | 12.0 | 0.00 | 0.00 | 0.00 | 80 | 1013.2 |
| 20260509024023 | 80 | 293 | 5.0 | 12.0 | 0.00 | 0.00 | 0.00 | 80 | 1013.2 |
| 20260509023503 | 80 | 299 | 4.0 | 9.0 | 0.00 | 0.00 | 0.00 | 80 | 1013.2 |
| 20260509023002 | 80 | 295 | 4.0 | 9.0 | 0.00 | 0.00 | 0.00 | 80 | 1013.2 |
| 20260509022502 | 80 | 292 | 4.0 | 8.0 | 0.00 | 0.00 | 0.00 | 80 | 1013.1 |
| 20260509022003 | 80 | 298 | 4.0 | 6.0 | 0.00 | 0.00 | 0.00 | 80 | 1013.1 |
| 20260509021502 | 80 | 302 | 3.0 | 9.0 | 0.00 | 0.00 | 0.00 | 80 | 1013.0 |
| 20260509021003 | 80 | 297 | 4.0 | 9.0 | 0.00 | 0.00 | 0.00 | 80 | 1012.9 |
| 20260509020523 | 80 | 293 | 5.0 | 11.0 | 0.00 | 0.00 | 0.00 | 80 | 1012.8 |
| 20260509020002 | 80 | 290 | 5.0 | 11.0 | 0.00 | 0.00 | 0.00 | 80 | 1012.7 |
| 20260509015502 | 80 | 293 | 4.0 | 10.0 | 0.00 | 0.00 | 0.00 | 80 | 1012.7 |
| 20260509015003 | 80 | 294 | 4.0 | 10.0 | 0.00 | 0.00 | 0.00 | 79 | 1012.7 |
| 20260509014503 | 80 | 291 | 4.0 | 10.0 | 0.00 | 0.00 | 0.00 | 79 | 1012.7 |
| 20260509014002 | 80 | 290 | 4.0 | 7.0 | 0.00 | 0.00 | 0.00 | 79 | 1012.6 |
| 20260509013523 | 80 | 289 | 4.0 | 9.0 | 0.00 | 0.00 | 0.00 | 79 | 1012.5 |
| 20260509013002 | 80 | 294 | 4.0 | 9.0 | 0.00 | 0.00 | 0.00 | 79 | 1012.4 |
| 20260509012502 | 80 | 299 | 4.0 | 9.0 | 0.00 | 0.00 | 0.00 | 79 | 1012.4 |
| 20260509012002 | 80 | 297 | 4.0 | 9.0 | 0.00 | 0.00 | 0.00 | 78 | 1012.3 |
| 20260509011502 | 80 | 294 | 4.0 | 9.0 | 0.00 | 0.00 | 0.00 | 78 | 1012.3 |
| 20260509011002 | 81 | 293 | 5.0 | 11.0 | 0.00 | 0.00 | 0.00 | 77 | 1012.3 |
| 20260509010503 | 81 | 291 | 5.0 | 12.0 | 0.00 | 0.00 | 0.00 | 77 | 1012.3 |
| 20260509010002 | 80 | 290 | 5.0 | 12.0 | 0.00 | 0.00 | 0.00 | 77 | 1012.2 |
| 20260509005502 | 80 | 292 | 4.0 | 9.0 | 0.00 | 0.00 | 0.00 | 77 | 1012.2 |
| 20260509005002 | 81 | 291 | 4.0 | 7.0 | 0.00 | 0.00 | 0.00 | 76 | 1012.2 |
| 20260509004502 | 81 | 286 | 4.0 | 7.0 | 0.00 | 0.00 | 0.00 | 76 | 1012.1 |
| 20260509004023 | 81 | 287 | 3.0 | 6.0 | 0.00 | 0.00 | 0.00 | 76 | 1012.1 |
| 20260509003502 | 81 | 287 | 4.0 | 10.0 | 0.00 | 0.00 | 0.00 | 76 | 1012.0 |
| 20260509003023 | 81 | 290 | 4.0 | 10.0 | 0.00 | 0.00 | 0.00 | 76 | 1011.9 |
| 20260509002503 | 81 | 293 | 4.0 | 8.0 | 0.00 | 0.00 | 0.00 | 76 | 1011.8 |
| 20260509002002 | 81 | 291 | 5.0 | 10.0 | 0.00 | 0.00 | 0.00 | 76 | 1011.8 |
| 20260509001502 | 81 | 287 | 4.0 | 10.0 | 0.00 | 0.00 | 0.00 | 76 | 1011.8 |
| 20260509001002 | 81 | 287 | 4.0 | 10.0 | 0.00 | 0.00 | 0.00 | 76 | 1011.7 |
| 20260509000523 | 81 | 285 | 5.0 | 10.0 | 0.00 | 0.00 | 0.00 | 76 | 1011.6 |
| 20260509000003 | 81 | 281 | 6.0 | 10.0 | 0.00 | 0.00 | 0.00 | 76 | 1011.6 |
| 20260508235503 | 81 | 283 | 6.0 | 10.0 | 0.00 | 0.00 | 0.00 | 76 | 1011.5 |
| 20260508235025 | 82 | 285 | 6.0 | 11.0 | 0.00 | 0.00 | 0.00 | 76 | 1011.4 |
| 20260508234503 | 82 | 287 | 5.0 | 11.0 | 0.00 | 0.00 | 0.00 | 75 | 1011.3 |
| 20260508234002 | 82 | 289 | 4.0 | 11.0 | 0.00 | 0.00 | 0.00 | 76 | 1011.3 |
| 20260508233502 | 82 | 293 | 5.0 | 10.0 | 0.00 | 0.00 | 0.00 | 76 | 1011.2 |
| 20260508233002 | 82 | 291 | 5.0 | 10.0 | 0.00 | 0.00 | 0.00 | 76 | 1011.2 |
| 20260508232523 | 82 | 280 | 5.0 | 11.0 | 0.00 | 0.00 | 0.00 | 76 | 1011.2 |
| 20260508232023 | 82 | 278 | 5.0 | 11.0 | 0.00 | 0.00 | 0.00 | 76 | 1011.1 |
| 20260508231503 | 82 | 280 | 5.0 | 9.0 | 0.00 | 0.00 | 0.00 | 75 | 1011.1 |
| 20260508231003 | 82 | 280 | 5.0 | 10.0 | 0.00 | 0.00 | 0.00 | 76 | 1011.1 |
| 20260508230523 | 82 | 281 | 6.0 | 11.0 | 0.00 | 0.00 | 0.00 | 76 | 1011.1 |
| 20260508230002 | 82 | 281 | 6.0 | 11.0 | 0.00 | 0.00 | 0.00 | 75 | 1011.1 |
| 20260508225502 | 83 | 281 | 6.0 | 10.0 | 0.00 | 0.00 | 0.00 | 75 | 1011.1 |
| 20260508225003 | 83 | 276 | 6.0 | 11.0 | 0.00 | 0.00 | 0.00 | 75 | 1011.0 |
| 20260508224503 | 83 | 273 | 8.0 | 12.0 | 0.00 | 0.00 | 0.00 | 75 | 1010.9 |
| 20260508224002 | 83 | 274 | 8.0 | 12.0 | 0.00 | 0.00 | 0.00 | 74 | 1010.8 |
| 20260508223504 | 84 | 271 | 7.0 | 12.0 | 0.00 | 0.00 | 0.00 | 73 | 1010.7 |
| 20260508223004 | 84 | 268 | 7.0 | 12.0 | 0.00 | 0.00 | 0.00 | 71 | 1010.7 |
| 20260508222502 | 84 | 273 | 6.0 | 11.0 | 0.00 | 0.00 | 0.00 | 70 | 1010.7 |
| 20260508222002 | 85 | 278 | 5.0 | 9.0 | 0.00 | 0.00 | 0.00 | 68 | 1010.7 |
| 20260508221502 | 85 | 282 | 5.0 | 10.0 | 0.00 | 0.00 | 0.00 | 68 | 1010.7 |
| 20260508221002 | 85 | 283 | 5.0 | 10.0 | 0.00 | 0.00 | 0.00 | 69 | 1010.7 |
| 20260508220524 | 85 | 280 | 5.0 | 10.0 | 0.00 | 0.00 | 0.00 | 70 | 1010.7 |
| 20260508220002 | 84 | 276 | 6.0 | 10.0 | 0.00 | 0.00 | 0.00 | 72 | 1010.8 |
| 20260508215503 | 84 | 278 | 6.0 | 10.0 | 0.00 | 0.00 | 0.00 | 72 | 1010.9 |
| 20260508215023 | 84 | 277 | 6.0 | 10.0 | 0.00 | 0.00 | 0.00 | 72 | 1010.9 |
| 20260508214523 | 84 | 273 | 6.0 | 11.0 | 0.00 | 0.00 | 0.00 | 73 | 1010.8 |
| 20260508214023 | 84 | 274 | 7.0 | 11.0 | 0.00 | 0.00 | 0.00 | 72 | 1010.9 |
| 20260508213523 | 84 | 270 | 6.0 | 11.0 | 0.00 | 0.00 | 0.00 | 72 | 1010.9 |
| 20260508213023 | 84 | 272 | 6.0 | 10.0 | 0.00 | 0.00 | 0.00 | 71 | 1011.0 |
| 20260508212502 | 84 | 275 | 7.0 | 12.0 | 0.00 | 0.00 | 0.00 | 74 | 1010.9 |
| 20260508212002 | 84 | 277 | 7.0 | 12.0 | 0.00 | 0.00 | 0.00 | 73 | 1010.9 |
| 20260508211502 | 84 | 280 | 6.0 | 11.0 | 0.00 | 0.00 | 0.00 | 73 | 1011.0 |
| 20260508211002 | 84 | 276 | 7.0 | 11.0 | 0.00 | 0.00 | 0.00 | 71 | 1010.9 |
| 20260508210524 | 84 | 273 | 7.0 | 11.0 | 0.00 | 0.00 | 0.00 | 71 | 1010.9 |
| 20260508210002 | 85 | 276 | 6.0 | 11.0 | 0.00 | 0.00 | 0.00 | 69 | 1010.9 |
| 20260508205502 | 85 | 277 | 6.0 | 11.0 | 0.00 | 0.00 | 0.00 | 70 | 1011.0 |
| 20260508205003 | 85 | 272 | 7.0 | 11.0 | 0.00 | 0.00 | 0.00 | 73 | 1010.9 |
| 20260508204502 | 84 | 276 | 7.0 | 12.0 | 0.00 | 0.00 | 0.00 | 71 | 1010.9 |
| 20260508204002 | 85 | 277 | 7.0 | 12.0 | 0.00 | 0.00 | 0.00 | 71 | 1010.9 |
| 20260508203502 | 85 | 278 | 7.0 | 10.0 | 0.00 | 0.00 | 0.00 | 71 | 1010.9 |
| 20260508203002 | 85 | 280 | 7.0 | 11.0 | 0.00 | 0.00 | 0.00 | 71 | 1011.0 |
| 20260508202523 | 85 | 281 | 6.0 | 11.0 | 0.00 | 0.00 | 0.00 | 71 | 1011.1 |
| 20260508202002 | 86 | 290 | 6.0 | 11.0 | 0.00 | 0.00 | 0.00 | 71 | 1011.1 |
| 20260508201502 | 85 | 289 | 6.0 | 11.0 | 0.00 | 0.00 | 0.00 | 71 | 1011.2 |